Starlink 31999

operational
NORAD ID: 60101 Int'l Des: 2024-117 Owner: SPXS Country: US Constellation: starlink
LEOCIRCULAR

Über Starlink 31999

Beschreibung wird geladen...

Live-Position

3D-Globus wird geladen...

Nächste Überflüge

Höhenverlauf

Altitude vs Time

uPlot chart will show altitude changes over time

Zweizeiliger Elementsatz

1 60101U 24117L 26036.69115616 .00000740 00000-0 37112-4 0 9994
2 60101 53.1596 186.0192 0001152 75.0878 285.0251 15.30190257 91983
Epoch: 5. Feb. 2026 • Age: 7 hours

Aktueller Status

Höhe 477.4 km
Geschwindigkeit 7.63 km/s
Subsatellitenpunkt 34.93°N, 154.43°W
Startdatum 23. Juni 2024
Alter 1.6 years
Typ internet

Technische Details

Klassifizierung Payload
Masse 730.00 kg
Trockenmasse 700.00 kg
Gesamtmasse 730.00 kg
Länge 0.30 m
Durchmesser 4.10 m
Spannweite 29.00 m
Form Box + pan
Hersteller SPXS
Bus-Typ Starlink V2M
Phasenstatus In Orbit
Besitzer/Staat SPXS/US

Große Konstellationen

Loading constellations...